Wind_Speed
16 17 20 22 22 23 25 26 29 31 32 35 33 35 37 37 38 39 40 44 48 50 51 56 59 61 65 68 69 69 68 64 63 58 49 41 45 49 45 43 48 56 62 59
19 21 21 23 24 26 28 29 32 33 34 40 38 40 41 42 43 46 48 48 47 49 51 54 58 60 62 64 68 70 70 68 65 61 56 51 46 48 45 43 45 48 56 59
22 23 25 26 27 30 30 33 35 38 38 42 45 47 41 45 47 48 51 56 58 58 56 56 57 59 61 61 64 66 69 69 67 65 61 53 52 58 50 45 46 49 45 52
25 27 28 28 30 35 31 37 39 39 42 44 44 59 44 44 45 49 52 54 56 58 59 59 59 58 59 61 61 62 65 68 66 68 66 61 58 57 55 52 53 56 60 56
25 29 29 29 31 36 38 39 40 42 45 50 48 55 53 55 56 49 49 49 54 58 60 61 60 58 56 60 62 61 60 61 63 60 63 65 67 64 64 66 60 61 64 63
24 29 31 33 35 37 39 40 42 45 46 52 47 53 57 54 54 55 49 42 47 50 53 56 59 58 56 55 58 59 58 58 61 62 61 62 61 63 68 70 67 66 66 63
29 30 33 34 36 37 37 38 42 46 47 50 52 57 57 55 52 47 40 34 38 36 38 42 49 53 56 56 58 58 56 53 52 57 60 55 51 52 55 58 61 64 65 61
33 30 29 33 35 37 36 36 40 46 47 52 50 55 44 41 40 31 28 28 33 35 33 39 44 46 51 57 58 57 60 59 58 56 55 54 50 47 53 56 58 58 62 62
34 32 30 32 34 35 37 38 41 45 45 50 50 44 37 33 30 29 29 32 36 40 38 37 41 40 45 53 58 57 56 56 54 53 53 50 46 47 49 52 53 56 58 58
34 34 31 35 35 34 35 37 39 39 43 45 41 38 32 27 21 17 21 27 27 33 35 33 43 39 40 43 54 60 56 56 52 50 49 50 49 46 48 53 57 57 58 60
33 34 32 33 33 33 33 35 37 37 35 35 35 34 29 31 26 20 22 23 28 27 29 28 33 31 33 33 39 45 58 61 58 60 58 55 50 50 48 48 52 58 61 60
31 32 28 31 32 32 32 33 34 35 33 30 31 28 26 27 31 32 34 31 29 26 24 29 27 30 30 26 33 41 48 59 67 66 68 60 58 55 53 49 52 51 57 63
27 28 26 27 29 30 29 29 31 31 30 23 28 23 25 24 26 26 29 27 29 27 30 27 30 29 29 31 32 34 37 49 61 66 64 64 59 57 55 53 54 51 49 54
27 25 25 24 29 30 24 26 28 31 25 25 20 22 19 23 23 23 23 27 27 27 26 27 30 34 31 31 33 38 42 45 52 54 65 65 63 58 55 53 51 46 45 41
24 23 22 24 26 28 21 22 26 26 20 25 18 23 20 19 21 25 28 26 29 29 32 36 34 37 39 39 37 40 45 50 54 55 57 55 63 63 60 53 54 48 42 41
22 20 21 20 26 25 18 20 21 21 23 23 19 20 24 26 28 26 25 27 32 34 35 36 38 41 43 43 44 43 47 63 61 62 62 65 62 63 60 55 54 51 44 41
21 19 21 18 22 21 16 17 16 17 17 19 21 24 27 29 36 36 35 38 37 37 40 43 43 44 46 48 51 51 50 55 66 57 57 56 59 64 61 57 54 49 50 47
16 20 20 17 19 17 17 15 15 16 19 21 24 29 35 39 41 40 43 45 42 43 44 47 49 52 54 54 57 58 59 60 62 64 61 63 58 59 62 62 59 57 52 52
16 19 19 16 16 14 16 16 17 17 17 27 31 38 41 45 42 32 43 45 47 47 46 46 48 52 57 62 64 67 67 68 72 72 67 64 64 62 59 60 61 57 59 56
17 18 17 16 16 11 16 18 19 21 20 27 35 40 40 38 42 35 41 43 43 42 41 38 39 40 43 51 60 66 70 73 73 74 74 73 71 67 65 62 58 54 56 61
17 18 16 18 17 12 18 17 19 22 26 33 39 40 40 44 46 40 36 31 30 28 31 33 37 42 44 41 48 50 55 60 69 78 76 77 75 73 72 69 69 64 58 57
16 18 18 19 18 15 15 16 20 23 28 36 36 39 39 43 37 34 23 23 28 33 33 37 39 37 48 48 51 49 45 42 48 50 62 80 80 76 74 73 70 70 67 63
17 19 20 20 18 16 15 19 19 24 28 31 33 34 39 36 34 30 28 30 35 27 36 36 46 38 33 38 40 41 44 44 50 54 48 52 60 80 77 76 71 66 70 68
19 20 20 20 17 14 15 13 17 24 26 28 35 40 35 39 30 29 31 26 26 35 35 44 52 46 37 38 35 34 31 34 36 46 49 51 44 62 77 72 76 70 65 65
21 19 19 17 15 10 12 11 16 23 28 30 36 35 35 38 30 35 34 27 28 36 43 48 54 51 45 41 30 27 22 16 26 29 32 42 41 38 60 66 71 71 70 62
19 15 16 13 9 10 10 13 17 22 25 27 27 24 32 35 32 30 30 24 28 36 44 48 53 53 49 40 30 30 13 5 13 20 26 30 34 35 30 44 62 66 67 66
Wind_Direction
246 247 250 255 261 265 267 267 268 268 270 267 269 268 270 271 269 264 260 257 257 254 249 249 250 250 250 251 255 258 259 260 262 264 259 250 250 251 246 243 242 243 247 233
255 256 259 261 262 262 264 269 271 270 273 274 272 269 270 274 275 274 270 264 258 258 255 251 249 249 249 250 252 254 257 260 261 260 261 253 245 247 246 249 246 242 245 252
257 259 263 268 273 271 273 273 269 272 269 271 273 269 272 275 277 276 273 269 267 264 257 253 251 248 247 248 251 252 254 257 259 259 258 255 249 247 242 252 257 248 246 248
269 267 268 270 273 274 273 275 278 278 277 277 274 281 277 278 276 276 272 268 267 266 263 257 250 248 247 244 245 249 251 252 254 256 254 252 245 244 238 245 257 259 255 250
267 275 277 277 276 279 283 282 282 284 285 286 289 289 292 294 293 287 281 270 268 263 258 254 250 245 242 243 242 244 246 247 247 247 252 255 249 244 246 249 256 257 257 256
267 273 276 277 279 279 280 278 277 279 282 284 295 291 290 300 295 287 277 268 254 251 251 253 250 248 240 240 243 244 244 246 244 246 249 254 256 255 255 253 252 256 257 257
266 269 272 274 276 278 280 283 287 288 293 295 298 295 303 299 293 285 277 267 252 249 249 253 255 252 251 240 241 243 244 245 249 247 245 248 249 248 250 252 249 250 251 253
272 270 274 278 280 284 289 293 296 296 298 297 301 302 302 291 290 283 263 262 248 251 256 257 251 252 248 246 242 242 242 244 241 241 241 244 242 244 245 247 247 246 247 248
278 278 281 282 285 290 294 297 296 296 297 298 301 303 295 285 285 265 259 272 259 251 256 251 252 253 248 242 243 245 246 243 244 247 245 244 243 247 243 245 247 248 248 249
280 283 286 287 289 291 292 294 295 299 304 305 309 305 287 298 279 272 270 270 270 262 260 255 244 249 253 247 239 242 245 245 243 246 246 244 247 244 247 241 244 247 247 248
282 284 284 283 284 288 294 297 301 303 307 306 310 308 305 276 278 274 286 287 264 267 262 265 249 250 249 254 248 241 240 243 245 247 243 245 245 246 254 256 249 245 247 247
281 282 282 284 289 292 298 302 303 305 307 305 305 322 316 285 285 296 290 289 282 271 283 266 258 252 253 258 247 237 236 237 240 244 246 244 247 247 254 261 258 250 248 249
278 280 282 283 287 292 299 301 303 303 305 310 298 320 313 304 285 289 274 270 272 269 266 267 263 259 257 259 256 243 242 234 232 234 238 243 242 239 249 258 254 249 245 246
277 279 280 284 288 294 302 306 303 304 306 303 314 300 299 300 299 288 286 274 269 268 262 266 266 261 259 258 256 243 243 237 231 236 239 241 241 239 247 252 256 252 252 245
274 275 279 285 289 296 305 301 301 301 301 309 303 301 289 305 312 296 283 278 275 275 262 260 259 261 259 252 249 252 249 248 245 240 239 243 245 243 248 249 252 250 250 244
271 274 280 287 288 298 306 297 305 306 300 303 296 305 294 296 300 299 298 285 275 272 270 263 256 255 253 255 253 246 244 246 250 243 246 248 244 241 243 246 246 251 248 248
265 271 280 287 286 297 299 295 310 310 306 301 302 305 305 302 304 305 300 290 282 273 268 265 260 255 254 253 255 253 246 239 235 240 238 237 241 237 239 241 242 236 240 248
259 272 282 292 293 297 292 298 308 305 303 302 307 309 309 308 307 308 296 295 292 285 276 269 262 258 259 258 258 253 252 250 245 245 245 245 242 242 242 243 241 241 236 244
265 277 285 295 293 292 288 294 300 309 311 309 312 312 314 313 310 314 302 302 299 293 288 283 275 266 258 256 256 255 254 250 249 246 245 245 244 242 238 239 236 239 234 240
269 277 288 296 293 276 275 281 293 302 314 309 310 313 316 312 310 310 302 301 299 292 286 284 286 283 277 271 263 258 254 252 250 247 246 244 243 242 241 238 236 237 235 233
273 282 294 293 291 272 270 278 297 312 317 315 316 320 321 324 321 328 327 323 304 283 291 287 288 283 270 267 263 258 263 261 252 246 247 244 241 239 240 239 236 234 233 230
278 288 293 288 287 273 259 270 298 312 313 313 320 321 327 327 334 338 324 319 327 326 316 313 316 308 287 277 282 275 258 257 255 250 246 243 239 236 235 236 235 236 234 230
286 289 289 285 283 274 266 279 300 306 310 318 324 332 337 340 340 339 335 328 335 335 335 339 342 342 302 295 293 285 275 267 252 248 251 245 242 234 229 229 232 233 235 233
288 292 288 283 276 272 271 289 302 307 322 329 337 338 343 348 352 350 346 357 352 344 353 350 349 348 340 332 319 304 291 261 241 240 248 239 240 227 227 225 228 230 231 235
290 294 285 278 269 249 262 287 302 320 327 336 338 337 347 348 348 353 351 351 354 1 3 0 358 351 351 348 338 329 308 271 236 241 236 226 227 228 225 226 225 228 230 230
293 286 279 266 236 238 266 292 314 320 328 339 338 341 348 352 341 350 356 354 359 4 1 7 8 6 2 5 8 355 353 275 231 244 229 220 221 225 222 223 223 226 227 228
Height
5744 5745 5745 5746 5747 5749 5748 5749 5749 5749 5749 5748 5751 5750 5748 5750 5752 5753 5753 5753 5752 5754 5757 5758 5759 5761 5762 5763 5765 5768 5773 5779 5782 5787 5795 5798 5801 5800 5802 5806 5808 5808 5810 5812
5740 5739 5741 5741 5742 5742 5742 5742 5742 5742 5742 5737 5742 5740 5739 5739 5740 5739 5738 5739 5740 5739 5742 5745 5746 5748 5750 5753 5755 5757 5761 5764 5769 5776 5782 5786 5789 5789 5790 5792 5795 5796 5800 5801
5733 5734 5733 5734 5734 5733 5735 5735 5733 5732 5733 5730 5728 5727 5733 5730 5729 5727 5724 5721 5720 5722 5726 5727 5730 5733 5736 5739 5743 5745 5749 5752 5756 5761 5768 5772 5775 5778 5779 5783 5785 5789 5790 5792
5725 5725 5725 5727 5727 5724 5729 5723 5722 5722 5720 5719 5720 5703 5723 5719 5716 5712 5709 5705 5704 5703 5706 5712 5714 5718 5720 5725 5727 5731 5735 5738 5742 5744 5752 5759 5765 5766 5769 5771 5774 5776 5780 5784
5719 5716 5718 5719 5718 5716 5716 5714 5711 5709 5707 5704 5706 5700 5699 5696 5694 5694 5693 5691 5688 5687 5688 5692 5696 5700 5703 5708 5712 5715 5720 5724 5727 5731 5733 5741 5749 5753 5756 5757 5761 5764 5765 5770
5713 5711 5710 5710 5709 5707 5706 5705 5703 5699 5697 5693 5695 5687 5688 5687 5675 5672 5669 5669 5669 5670 5671 5673 5678 5681 5688 5692 5696 5701 5706 5710 5714 5718 5721 5724 5732 5736 5739 5744 5748 5750 5753 5757
5705 5706 5704 5702 5700 5698 5697 5695 5692 5688 5686 5682 5678 5674 5672 5666 5657 5653 5653 5655 5656 5658 5660 5662 5664 5666 5670 5676 5682 5686 5692 5697 5702 5706 5708 5712 5716 5718 5723 5728 5732 5736 5739 5745
5695 5697 5696 5694 5692 5689 5687 5687 5683 5675 5674 5671 5667 5661 5659 5651 5645 5642 5642 5643 5644 5648 5650 5650 5651 5652 5655 5660 5667 5673 5679 5685 5690 5694 5696 5699 5703 5705 5708 5713 5718 5723 5727 5732
5684 5686 5686 5684 5682 5681 5678 5677 5673 5668 5665 5660 5657 5651 5647 5641 5636 5634 5633 5633 5634 5635 5637 5638 5640 5640 5642 5647 5652 5659 5665 5670 5675 5679 5683 5685 5688 5690 5694 5699 5704 5710 5714 5718
5677 5675 5677 5673 5673 5672 5670 5668 5664 5659 5653 5647 5644 5639 5636 5633 5629 5625 5624 5624 5624 5625 5625 5626 5629 5631 5631 5633 5639 5645 5652 5657 5662 5665 5668 5670 5673 5676 5681 5686 5691 5696 5700 5704
5668 5668 5669 5666 5665 5664 5662 5658 5653 5648 5646 5638 5633 5633 5630 5627 5624 5620 5619 5619 5618 5617 5616 5616 5618 5620 5622 5625 5627 5632 5638 5643 5647 5651 5651 5656 5660 5665 5670 5673 5677 5681 5685 5689
5661 5659 5660 5658 5655 5654 5653 5649 5645 5640 5637 5633 5628 5627 5621 5617 5615 5613 5613 5612 5611 5610 5609 5609 5609 5611 5613 5614 5617 5620 5623 5628 5631 5634 5637 5641 5646 5652 5657 5661 5666 5670 5672 5675
5653 5652 5652 5651 5650 5647 5646 5642 5637 5633 5630 5629 5622 5621 5615 5612 5610 5608 5606 5604 5604 5603 5601 5601 5601 5601 5603 5604 5605 5607 5610 5612 5613 5619 5620 5628 5634 5639 5643 5647 5652 5657 5660 5662
5645 5646 5645 5645 5642 5640 5639 5635 5630 5626 5623 5620 5618 5614 5612 5608 5605 5602 5600 5599 5597 5595 5593 5592 5592 5591 5592 5593 5594 5595 5597 5598 5601 5605 5610 5615 5620 5626 5631 5635 5639 5643 5647 5651
5638 5639 5638 5637 5635 5632 5633 5630 5625 5621 5619 5614 5614 5609 5606 5603 5600 5596 5593 5591 5588 5586 5585 5584 5582 5581 5580 5582 5583 5585 5586 5587 5589 5591 5596 5601 5606 5612 5618 5624 5627 5629 5633 5637
5631 5632 5632 5632 5628 5627 5627 5623 5620 5617 5614 5610 5607 5604 5600 5597 5593 5589 5586 5583 5581 5578 5575 5574 5572 5571 5570 5568 5569 5571 5572 5573 5573 5576 5581 5584 5589 5595 5602 5609 5614 5617 5622 5625
5624 5625 5626 5627 5623 5621 5621 5618 5616 5612 5609 5606 5602 5599 5594 5591 5586 5583 5578 5572 5569 5566 5563 5560 5558 5557 5557 5556 5554 5554 5556 5558 5560 5560 5565 5569 5575 5579 5585 5592 5598 5604 5609 5614
5618 5619 5619 5620 5617 5616 5613 5612 5611 5608 5603 5600 5597 5592 5587 5581 5577 5574 5564 5556 5555 5552 5548 5545 5542 5541 5540 5539 5537 5537 5537 5539 5542 5545 5549 5554 5558 5563 5569 5575 5583 5589 5595 5601
5612 5613 5612 5612 5610 5610 5607 5606 5605 5603 5602 5594 5590 5585 5579 5571 5564 5565 5550 5545 5537 5532 5527 5523 5520 5518 5517 5515 5515 5514 5516 5519 5520 5524 5528 5533 5538 5545 5551 5558 5565 5572 5580 5587
5607 5607 5607 5605 5604 5604 5601 5600 5599 5597 5596 5592 5586 5579 5570 5564 5555 5554 5544 5535 5526 5518 5511 5504 5500 5496 5492 5491 5487 5484 5488 5488 5492 5499 5504 5510 5516 5524 5533 5542 5549 5556 5564 5572
5601 5600 5601 5599 5598 5598 5596 5595 5593 5591 5592 5584 5576 5569 5562 5553 5544 5534 5527 5521 5514 5508 5502 5494 5488 5483 5476 5469 5460 5457 5459 5461 5465 5466 5473 5483 5491 5502 5512 5520 5530 5540 5550 5558
5596 5595 5595 5593 5592 5592 5590 5590 5589 5588 5583 5576 5571 5563 5556 5547 5537 5528 5521 5515 5509 5502 5494 5485 5476 5467 5456 5449 5439 5434 5433 5435 5434 5436 5442 5451 5463 5477 5487 5498 5510 5520 5531 5543
5591 5591 5590 5588 5587 5585 5585 5585 5584 5581 5578 5572 5565 5559 5549 5540 5532 5524 5517 5510 5503 5495 5487 5478 5466 5453 5444 5434 5421 5413 5409 5406 5409 5414 5421 5428 5434 5449 5463 5476 5489 5499 5511 5523
5585 5584 5583 5581 5581 5580 5580 5581 5580 5576 5572 5567 5559 5551 5544 5535 5527 5521 5513 5506 5498 5490 5482 5472 5457 5441 5430 5418 5404 5394 5388 5385 5387 5397 5403 5407 5415 5424 5440 5456 5469 5481 5493 5506
5580 5579 5577 5576 5575 5577 5577 5578 5577 5573 5567 5562 5556 5548 5541 5533 5525 5517 5510 5503 5496 5488 5479 5466 5451 5435 5420 5406 5394 5383 5376 5375 5378 5383 5386 5392 5403 5412 5423 5437 5453 5466 5479 5492
5574 5574 5572 5571 5572 5573 5574 5574 5572 5569 5565 5561 5555 5549 5542 5532 5524 5517 5509 5502 5495 5489 5480 5467 5453 5433 5416 5403 5390 5377 5368 5368 5370 5373 5377 5385 5395 5405 5414 5423 5437 5451 5465 5478